When you browse on this site, cookies collect data to enhance your experience and personalize the content and advertising you see.
Visit our Privacy Policy to learn more. By continuing to use the site, you agree to this use of cookies and data.
  • In Lithuania
  • List of Countries
  • For 7 days
  • Water Temperature
  • Weather Map
  • Weather Widgets
  • user-avatar
    Login

    Hourly Weather Monaco

    Today, 5 June, Friday

    Time Temperature Precipitation Wind Pressure Humidity
    00:00 +15°C° 0 mm 4 mps 739 mmHg 80%
    01:00 +15°C° 0 mm 4 mps 738 mmHg 80%
    02:00 +16°C° 0 mm 3 mps 738 mmHg 79%
    03:00 +16°C° 0 mm 3 mps 738 mmHg 79%
    04:00 +17°C° 0 mm 2 mps 738 mmHg 77%
    05:00 +18°C° 0 mm 2 mps 738 mmHg 74%
    06:00 +18°C° 0 mm 2 mps 738 mmHg 72%
    07:00 +20°C° 0 mm 3 mps 739 mmHg 64%
    08:00 +22°C° 0 mm 3 mps 739 mmHg 57%
    09:00 +25°C° 0 mm 4 mps 739 mmHg 50%
    10:00 +25°C° 0 mm 4 mps 740 mmHg 50%
    11:00 +25°C° 0 mm 3 mps 740 mmHg 51%
    12:00 +26°C° 0 mm 3 mps 740 mmHg 51%
    13:00 +26°C° 0 mm 3 mps 741 mmHg 52%
    14:00 +26°C° 0 mm 3 mps 741 mmHg 52%
    15:00 +26°C° 0 mm 3 mps 741 mmHg 52%
    16:00 +25°C° 0 mm 3 mps 741 mmHg 57%
    17:00 +24°C° 0 mm 3 mps 742 mmHg 61%
    18:00 +24°C° 0 mm 3 mps 742 mmHg 65%
    19:00 +21°C° 0 mm 3 mps 743 mmHg 67%
    20:00 +20°C° 0 mm 3 mps 743 mmHg 69%
    21:00 +19°C° 0 mm 2 mps 744 mmHg 71%
    22:00 +19°C° 0 mm 2 mps 744 mmHg 72%
    23:00 +18°C° 0 mm 2 mps 745 mmHg 72%

    Tomorrow, 6 June, Saturday

    Time Temperature Precipitation Wind Pressure Humidity
    00:00 +18°C° 0 mm 2 mps 745 mmHg 72%
    01:00 +18°C° 0 mm 2 mps 745 mmHg 71%
    02:00 +18°C° 0 mm 2 mps 745 mmHg 70%
    03:00 +18°C° 0 mm 2 mps 745 mmHg 69%
    04:00 +19°C° 0 mm 2 mps 746 mmHg 67%
    05:00 +20°C° 0 mm 1 mps 746 mmHg 66%
    06:00 +21°C° 0 mm 1 mps 746 mmHg 64%
    07:00 +21°C° 0 mm 2 mps 746 mmHg 62%
    08:00 +24°C° 0 mm 2 mps 746 mmHg 60%
    09:00 +25°C° 0 mm 2 mps 746 mmHg 58%
    10:00 +25°C° 0 mm 3 mps 746 mmHg 60%
    11:00 +25°C° 0 mm 3 mps 746 mmHg 63%
    12:00 +25°C° 0 mm 3 mps 746 mmHg 65%
    13:00 +25°C° 0 mm 3 mps 746 mmHg 67%
    14:00 +25°C° 0 mm 2 mps 746 mmHg 69%
    15:00 +25°C° 0 mm 2 mps 746 mmHg 71%
    16:00 +25°C° 0 mm 2 mps 746 mmHg 73%
    17:00 +24°C° 0 mm 2 mps 745 mmHg 76%
    18:00 +24°C° 0 mm 2 mps 745 mmHg 78%
    19:00 +22°C° 0 mm 3 mps 746 mmHg 79%
    20:00 +21°C° 0 mm 4 mps 746 mmHg 80%
    21:00 +20°C° 0 mm 5 mps 746 mmHg 81%
    22:00 +19°C° 0 mm 5 mps 746 mmHg 80%
    23:00 +19°C° 0 mm 4 mps 746 mmHg 80%

    Day after tomorrow, 7 June, Sunday

    Time Temperature Precipitation Wind Pressure Humidity
    00:00 +19°C° 0 mm 4 mps 746 mmHg 79%
    01:00 +19°C° 0 mm 4 mps 746 mmHg 77%
    02:00 +19°C° 0 mm 4 mps 746 mmHg 75%
    03:00 +19°C° 0 mm 3 mps 745 mmHg 74%
    04:00 +19°C° 0 mm 3 mps 745 mmHg 73%
    05:00 +20°C° 0 mm 3 mps 745 mmHg 72%
    06:00 +21°C° 0 mm 3 mps 745 mmHg 71%
    07:00 +22°C° 0 mm 4 mps 745 mmHg 68%
    08:00 +23°C° 0 mm 4 mps 746 mmHg 65%
    09:00 +25°C° 0 mm 5 mps 746 mmHg 63%
    10:00 +25°C° 0.3 mm 5 mps 746 mmHg 66%
    11:00 +25°C° 0.3 mm 5 mps 746 mmHg 70%
    12:00 +25°C° 0.3 mm 5 mps 746 mmHg 73%
    13:00 +25°C° 0.6 mm 5 mps 745 mmHg 73%
    14:00 +25°C° 0.6 mm 5 mps 745 mmHg 73%
    15:00 +25°C° 0.6 mm 5 mps 745 mmHg 73%
    16:00 +23°C° 0.4 mm 5 mps 745 mmHg 73%
    17:00 +23°C° 0.4 mm 4 mps 745 mmHg 74%
    18:00 +23°C° 0.4 mm 4 mps 745 mmHg 74%
    19:00 +22°C° 0.1 mm 4 mps 745 mmHg 76%
    20:00 +20°C° 0.1 mm 4 mps 745 mmHg 77%
    21:00 +19°C° 0.1 mm 4 mps 746 mmHg 78%
    22:00 +19°C° 0 mm 3 mps 745 mmHg 78%
    23:00 +18°C° 0 mm 3 mps 745 mmHg 78%

    8 June, Monday

    Time Temperature Precipitation Wind Pressure Humidity
    00:00 +18°C° 0 mm 3 mps 745 mmHg 78%
    01:00 +18°C° 0 mm 3 mps 745 mmHg 77%
    02:00 +18°C° 0 mm 3 mps 745 mmHg 77%
    03:00 +17°C° 0 mm 3 mps 745 mmHg 76%
    04:00 +18°C° 0 mm 3 mps 745 mmHg 75%
    05:00 +19°C° 0 mm 3 mps 745 mmHg 74%
    06:00 +20°C° 0 mm 3 mps 745 mmHg 72%
    07:00 +21°C° 0.1 mm 3 mps 745 mmHg 71%
    08:00 +22°C° 0.1 mm 3 mps 746 mmHg 70%
    09:00 +24°C° 0.1 mm 3 mps 746 mmHg 69%
    10:00 +24°C° 0.5 mm 3 mps 746 mmHg 71%
    11:00 +24°C° 0.5 mm 3 mps 746 mmHg 73%
    12:00 +24°C° 0.5 mm 3 mps 746 mmHg 75%
    13:00 +24°C° 0.6 mm 2 mps 746 mmHg 75%
    14:00 +24°C° 0.6 mm 2 mps 746 mmHg 75%
    15:00 +23°C° 0.6 mm 2 mps 746 mmHg 75%
    16:00 +23°C° 0.4 mm 2 mps 746 mmHg 76%
    17:00 +23°C° 0.4 mm 2 mps 746 mmHg 77%
    18:00 +21°C° 0.4 mm 3 mps 746 mmHg 78%
    19:00 +20°C° 0.1 mm 3 mps 746 mmHg 79%
    20:00 +19°C° 0.1 mm 3 mps 747 mmHg 81%
    21:00 +18°C° 0.1 mm 3 mps 747 mmHg 82%
    22:00 +18°C° 0 mm 3 mps 747 mmHg 81%
    23:00 +18°C° 0 mm 3 mps 747 mmHg 80%

    9 June, Tuesday

    Time Temperature Precipitation Wind Pressure Humidity
    00:00 +17°C° 0 mm 3 mps 747 mmHg 79%
    01:00 +17°C° 0 mm 3 mps 747 mmHg 78%
    02:00 +17°C° 0 mm 3 mps 747 mmHg 76%
    03:00 +17°C° 0 mm 2 mps 747 mmHg 75%
    04:00 +18°C° 0 mm 2 mps 747 mmHg 73%
    05:00 +19°C° 0 mm 2 mps 748 mmHg 71%
    06:00 +20°C° 0 mm 2 mps 748 mmHg 69%
    07:00 +21°C° 0 mm 2 mps 748 mmHg 66%
    08:00 +23°C° 0 mm 2 mps 748 mmHg 63%
    09:00 +25°C° 0 mm 3 mps 748 mmHg 59%
    10:00 +25°C° 0.4 mm 3 mps 748 mmHg 62%
    11:00 +24°C° 0.4 mm 3 mps 749 mmHg 65%
    12:00 +24°C° 0.4 mm 3 mps 749 mmHg 67%
    13:00 +23°C° 0.5 mm 4 mps 749 mmHg 69%
    14:00 +23°C° 0.5 mm 4 mps 749 mmHg 71%
    15:00 +23°C° 0.5 mm 4 mps 749 mmHg 73%
    16:00 +22°C° 0.3 mm 3 mps 749 mmHg 75%
    17:00 +23°C° 0.3 mm 2 mps 749 mmHg 77%
    18:00 +22°C° 0.3 mm 1 mps 749 mmHg 79%
    19:00 +20°C° 0 mm 2 mps 749 mmHg 80%
    20:00 +19°C° 0 mm 2 mps 750 mmHg 80%
    21:00 +18°C° 0 mm 2 mps 750 mmHg 80%
    22:00 +18°C° 0 mm 2 mps 750 mmHg 80%
    23:00 +18°C° 0 mm 2 mps 750 mmHg 79%

    10 June, Wednesday

    Time Temperature Precipitation Wind Pressure Humidity
    00:00 +18°C° 0 mm 3 mps 750 mmHg 79%
    01:00 +17°C° 0 mm 3 mps 750 mmHg 78%
    02:00 +17°C° 0 mm 2 mps 750 mmHg 78%
    03:00 +17°C° 0 mm 2 mps 750 mmHg 77%
    04:00 +18°C° 0 mm 2 mps 750 mmHg 75%
    05:00 +19°C° 0 mm 2 mps 750 mmHg 73%
    06:00 +21°C° 0 mm 1 mps 751 mmHg 71%
    07:00 +21°C° 0.1 mm 2 mps 751 mmHg 70%
    08:00 +23°C° 0.1 mm 2 mps 751 mmHg 68%
    09:00 +24°C° 0.1 mm 3 mps 751 mmHg 67%
    10:00 +24°C° 0.4 mm 3 mps 751 mmHg 67%
    11:00 +24°C° 0.4 mm 3 mps 751 mmHg 67%
    12:00 +25°C° 0.4 mm 3 mps 751 mmHg 67%
    13:00 +24°C° 0.2 mm 3 mps 751 mmHg 68%
    14:00 +24°C° 0.2 mm 3 mps 751 mmHg 68%
    15:00 +24°C° 0.2 mm 3 mps 751 mmHg 69%
    16:00 +24°C° 0.1 mm 3 mps 751 mmHg 71%
    17:00 +22°C° 0.1 mm 3 mps 751 mmHg 73%
    18:00 +22°C° 0.1 mm 3 mps 751 mmHg 75%
    19:00 +21°C° 0 mm 3 mps 752 mmHg 76%
    20:00 +20°C° 0 mm 3 mps 752 mmHg 77%
    21:00 +19°C° 0 mm 3 mps 752 mmHg 78%
    22:00 +19°C° 0 mm 3 mps 752 mmHg 79%
    23:00 +18°C° 0 mm 4 mps 752 mmHg 79%
    Show more